TimeHST,TemperatureF,Dew PointF,Humidity,Sea Level PressureIn,VisibilityMPH,Wind Direction,Wind SpeedMPH,Gust SpeedMPH,PrecipitationIn,Events,Conditions,WindDirDegrees,DateUTC
12:53 AM,71.1,62.1,73,29.98,10.0,SSW,5.8,-,N/A,,Mostly Cloudy,200,2012-11-03 10:53:00
1:53 AM,70.0,57.9,65,29.96,10.0,WSW,8.1,-,N/A,,Mostly Cloudy,250,2012-11-03 11:53:00
2:53 AM,70.0,57.0,63,29.94,10.0,West,6.9,-,N/A,,Mostly Cloudy,260,2012-11-03 12:53:00
3:53 AM,68.0,59.0,73,29.94,10.0,South,4.6,-,N/A,,Mostly Cloudy,190,2012-11-03 13:53:00
4:53 AM,69.1,61.0,75,29.95,10.0,SSW,3.5,-,N/A,,Mostly Cloudy,210,2012-11-03 14:53:00
5:53 AM,70.0,57.0,63,29.96,10.0,SW,4.6,-,N/A,,Overcast,230,2012-11-03 15:53:00
6:53 AM,70.0,59.0,68,29.98,10.0,Calm,Calm,-,N/A,,Mostly Cloudy,0,2012-11-03 16:53:00
7:53 AM,73.9,57.9,57,29.99,7.0,Calm,Calm,-,N/A,,Mostly Cloudy,0,2012-11-03 17:53:00
8:53 AM,78.1,60.1,54,30.00,10.0,Variable,4.6,-,N/A,,Partly Cloudy,0,2012-11-03 18:53:00
9:53 AM,81.0,64.0,56,29.99,10.0,SSE,6.9,-,N/A,,Partly Cloudy,150,2012-11-03 19:53:00
10:53 AM,82.0,63.0,52,29.97,10.0,ESE,4.6,-,N/A,,Scattered Clouds,120,2012-11-03 20:53:00
11:53 AM,82.9,66.0,56,29.95,10.0,East,13.8,-,N/A,,Partly Cloudy,100,2012-11-03 21:53:00
12:53 PM,82.0,64.9,56,29.94,10.0,East,12.7,-,N/A,,Scattered Clouds,100,2012-11-03 22:53:00
1:53 PM,81.0,64.9,58,29.94,10.0,East,13.8,-,N/A,,Mostly Cloudy,90,2012-11-03 23:53:00
2:53 PM,80.1,64.0,58,29.93,10.0,ESE,8.1,-,N/A,,Mostly Cloudy,120,2012-11-04 00:53:00
3:53 PM,79.0,66.0,64,29.94,10.0,East,6.9,-,N/A,,Mostly Cloudy,100,2012-11-04 01:53:00
4:53 PM,78.1,66.0,66,29.95,10.0,East,5.8,-,N/A,,Overcast,100,2012-11-04 02:53:00
5:53 PM,75.9,66.9,74,29.97,10.0,SSE,3.5,-,N/A,,Overcast,160,2012-11-04 03:53:00
6:53 PM,73.9,64.9,73,29.99,10.0,SW,5.8,-,N/A,,Overcast,230,2012-11-04 04:53:00
7:53 PM,72.0,64.0,76,30.01,10.0,WSW,4.6,-,N/A,,Scattered Clouds,240,2012-11-04 05:53:00
8:53 PM,72.0,64.9,78,30.02,10.0,WSW,4.6,-,N/A,,Mostly Cloudy,240,2012-11-04 06:53:00
9:53 PM,73.0,64.9,76,30.02,10.0,SW,5.8,-,N/A,,Overcast,230,2012-11-04 07:53:00
10:31 PM,73.4,66.2,78,30.02,10.0,Calm,Calm,-,0.00,Rain,Light Rain,0,2012-11-04 08:31:00
10:53 PM,73.0,66.0,79,30.02,10.0,WSW,3.5,-,0.00,,Overcast,250,2012-11-04 08:53:00
11:19 PM,71.6,66.2,83,30.01,10.0,South,3.5,-,N/A,,Mostly Cloudy,190,2012-11-04 09:19:00
11:53 PM,72.0,66.0,81,30.00,10.0,South,3.5,-,N/A,,Overcast,190,2012-11-04 09:53:00